Tracking 29892 objects as of 21-Nov-2024
HD Live streaming from Space Station
objects crossing your sky now

NOAA 16 DEB

Track NOAA 16 DEB now!
10-day predictions


NORAD ID: 41424
Int'l Code: 2000-055LD
Perigee: 778.1 km
Apogee: 812.8 km
Inclination: 98.9 °
Period: 100.6 minutes
Semi major axis: 7166 km
RCS: Unknown
Launch date: September 21, 2000
Source: United States (US)
Launch site: AIR FORCE WESTERN TEST RANGE (AFWTR)

Note: This is SATELLITE DEBRIS
Your satellite tracking list
Your tracking list is empty




NASA's NSSDC Master Catalog

Two Line Element Set (TLE):
1 41424U 00055LD  24325.80774152  .00009678  00000-0  36789-2 0  9990
2 41424  98.9294  90.4482 0024209  42.8555 317.4508 14.31010574452512
Source of the keplerian elements: AFSPC